date,City,No. Stations,Air Quality,Index Value,Prominent Pollutant
2019-07-03,Meerut,1.0,Satisfactory,87,PM10
2019-07-04,Meerut,1.0,Satisfactory,69,OZONE
2019-07-05,Meerut,1.0,Satisfactory,91,PM10
2019-07-06,Meerut,1.0,Satisfactory,80,OZONE
2019-07-07,Meerut,1.0,Satisfactory,85,OZONE
2019-07-08,Meerut,1.0,Satisfactory,80,OZONE
2019-07-09,Meerut,1.0,Satisfactory,77,OZONE
2019-07-10,Meerut,1.0,Moderate,106,OZONE
2019-07-11,Meerut,1.0,Poor,209,PM10
2019-07-12,Meerut,1.0,Satisfactory,94,PM10
2019-07-13,Meerut,1.0,Poor,251,PM10
2019-10-08,Meerut,1.0,Moderate,108,PM10
2019-10-09,Meerut,1.0,Moderate,165,PM2.5
2019-10-10,Meerut,1.0,Poor,220,PM2.5
2019-10-11,Meerut,1.0,Poor,253,PM2.5
2019-10-12,Meerut,1.0,Poor,269,PM2.5
2019-10-13,Meerut,1.0,Poor,202,PM2.5
2019-10-14,Meerut,1.0,Moderate,189,PM2.5
2019-10-15,Meerut,3.0,Very Poor,324,PM2.5
2019-10-16,Meerut,2.0,Very Poor,314,PM2.5
2019-10-17,Meerut,2.0,Poor,269,PM2.5
2019-10-18,Meerut,2.0,Poor,243,PM2.5
2019-10-19,Meerut,3.0,Moderate,179,PM2.5
2019-10-20,Meerut,3.0,Poor,249,"PM10, PM2.5"
2019-10-21,Meerut,3.0,Poor,255,"PM10, PM2.5"
2019-10-22,Meerut,3.0,Poor,238,PM2.5
2019-10-23,Meerut,3.0,Poor,280,PM2.5
2019-10-24,Meerut,3.0,Poor,293,PM2.5
2019-10-25,Meerut,3.0,Poor,287,PM2.5
2019-10-26,Meerut,2.0,Poor,292,PM2.5
2019-10-27,Meerut,3.0,Very Poor,326,PM2.5
2019-10-28,Meerut,3.0,Very Poor,352,PM2.5
2019-10-29,Meerut,3.0,Very Poor,379,PM2.5
2019-10-30,Meerut,3.0,Severe,430,PM2.5
2019-10-31,Meerut,3.0,Severe,459,PM2.5
2019-11-01,Meerut,3.0,Severe,410,PM2.5
2019-11-02,Meerut,3.0,Very Poor,371,PM2.5
2019-11-03,Meerut,3.0,Severe,445,PM2.5
2019-11-04,Meerut,3.0,Severe,424,PM2.5
2019-11-05,Meerut,3.0,Very Poor,324,PM2.5
2019-11-06,Meerut,3.0,Very Poor,325,PM2.5
2019-11-07,Meerut,3.0,Poor,250,"PM10, PM2.5"
2019-11-08,Meerut,3.0,Moderate,193,PM2.5
2019-11-09,Meerut,3.0,Poor,223,PM2.5
2019-11-10,Meerut,2.0,Very Poor,322,PM2.5
2019-11-11,Meerut,3.0,Poor,288,"PM10, PM2.5"
2019-11-12,Meerut,3.0,Poor,269,PM2.5
2019-11-13,Meerut,3.0,Poor,297,PM2.5
2019-11-14,Meerut,3.0,Very Poor,321,PM2.5
2019-11-15,Meerut,3.0,Very Poor,304,PM2.5
2019-11-16,Meerut,3.0,Moderate,192,PM2.5
2019-11-17,Meerut,3.0,Moderate,157,"PM10, PM2.5"
2019-11-18,Meerut,3.0,Poor,257,PM2.5
2019-11-19,Meerut,3.0,Poor,294,PM2.5
2019-11-20,Meerut,3.0,Very Poor,313,PM2.5
2019-11-21,Meerut,3.0,Very Poor,348,PM2.5
2019-11-22,Meerut,3.0,Very Poor,315,PM2.5
2019-11-23,Meerut,3.0,Poor,296,PM2.5
2019-11-24,Meerut,3.0,Moderate,194,PM2.5
2019-11-25,Meerut,3.0,Moderate,186,PM2.5
2019-11-26,Meerut,3.0,Poor,248,PM2.5
2019-11-27,Meerut,3.0,Moderate,127,"PM10, PM2.5"
2019-11-28,Meerut,2.0,Satisfactory,87,"PM10, PM2.5"
2019-11-29,Meerut,3.0,Satisfactory,64,"PM10, PM2.5"
2019-11-30,Meerut,2.0,Moderate,190,PM2.5
2019-12-01,Meerut,3.0,Moderate,193,PM2.5
2019-12-02,Meerut,3.0,Poor,252,"PM10, PM2.5"
2019-12-03,Meerut,3.0,Poor,289,PM2.5
2019-12-04,Meerut,3.0,Very Poor,330,"PM10, PM2.5"
2019-12-05,Meerut,3.0,Very Poor,359,PM2.5
2019-12-06,Meerut,3.0,Very Poor,302,PM2.5
2019-12-07,Meerut,3.0,Poor,263,PM2.5
2019-12-08,Meerut,3.0,Poor,287,PM2.5
2019-12-09,Meerut,3.0,Poor,283,PM2.5
2019-12-10,Meerut,2.0,Very Poor,314,PM2.5
2019-12-11,Meerut,3.0,Very Poor,356,PM2.5
2019-12-12,Meerut,3.0,Very Poor,391,"PM10, PM2.5"
2019-12-13,Meerut,3.0,Moderate,172,PM2.5
2019-12-14,Meerut,2.0,Good,36,"CO, O3"
2019-12-15,Meerut,3.0,Moderate,160,PM2.5
2019-12-16,Meerut,3.0,Moderate,155,PM2.5
2019-12-17,Meerut,2.0,Moderate,161,PM2.5
2019-12-18,Meerut,3.0,Poor,255,PM2.5
2019-12-19,Meerut,3.0,Poor,264,PM2.5
2019-12-20,Meerut,2.0,Very Poor,320,PM2.5
2019-12-21,Meerut,2.0,Very Poor,368,"PM10, PM2.5"
2019-12-22,Meerut,2.0,Poor,239,"PM10, PM2.5"
2019-12-23,Meerut,2.0,Poor,260,PM2.5
2019-12-24,Meerut,3.0,Poor,282,PM2.5
2019-12-25,Meerut,3.0,Poor,224,PM2.5
2019-12-26,Meerut,3.0,Poor,288,PM2.5
2019-12-27,Meerut,2.0,Very Poor,311,PM2.5
2019-12-28,Meerut,3.0,Poor,283,"PM10, PM2.5"
2019-12-29,Meerut,3.0,Poor,266,"PM10, PM2.5"
2019-12-30,Meerut,3.0,Very Poor,338,PM2.5
2019-12-31,Meerut,3.0,Poor,256,PM2.5
2020-01-01,Meerut,3.0,Very Poor,346,"PM10, PM2.5"
2020-01-02,Meerut,2.0,Poor,275,PM2.5
2020-01-03,Meerut,2.0,Poor,220,PM2.5
2020-01-04,Meerut,3.0,Poor,282,"PM10, PM2.5"
2020-01-05,Meerut,3.0,Poor,274,PM2.5
2020-01-06,Meerut,3.0,Poor,284,PM2.5
2020-01-07,Meerut,3.0,Moderate,120,"PM10, PM2.5"
2020-01-08,Meerut,3.0,Moderate,107,"PM10, PM2.5"
2020-01-09,Meerut,2.0,Moderate,125,PM2.5
2020-01-10,Meerut,3.0,Poor,219,PM2.5
2020-01-11,Meerut,3.0,Poor,283,PM2.5
2020-01-12,Meerut,3.0,Very Poor,357,PM2.5
2020-01-13,Meerut,1.0,Very Poor,366,PM2.5
2020-01-14,Meerut,1.0,Poor,292,PM2.5
2020-01-15,Meerut,2.0,Poor,204,PM2.5
2020-01-16,Meerut,2.0,Poor,232,PM2.5
2020-01-17,Meerut,3.0,Satisfactory,85,"PM10, PM2.5"
2020-01-18,Meerut,3.0,Satisfactory,86,"PM10, PM2.5"
2020-01-19,Meerut,3.0,Moderate,192,"PM10, PM2.5"
2020-01-20,Meerut,3.0,Poor,218,PM2.5
2020-01-21,Meerut,3.0,Very Poor,309,PM2.5
2020-01-22,Meerut,3.0,Poor,262,PM2.5
2020-01-23,Meerut,3.0,Moderate,161,"PM10, PM2.5"
2020-01-24,Meerut,3.0,Moderate,119,"PM10, PM2.5"
2020-01-25,Meerut,3.0,Poor,260,PM2.5
2020-01-26,Meerut,3.0,Very Poor,339,PM2.5
2020-01-27,Meerut,3.0,Poor,296,PM2.5
2020-01-28,Meerut,3.0,Poor,244,PM2.5
2020-01-29,Meerut,3.0,Moderate,107,"PM10, PM2.5"
2020-01-30,Meerut,3.0,Moderate,111,PM10
2020-01-31,Meerut,3.0,Moderate,137,"PM10, PM2.5"
2020-02-01,Meerut,3.0,Moderate,184,"PM10, PM2.5"
2020-02-02,Meerut,1.0,Poor,207,PM2.5
2020-02-03,Meerut,1.0,Poor,225,PM2.5
2020-02-04,Meerut,2.0,Poor,202,"PM10, PM2.5"
2020-02-05,Meerut,2.0,Poor,220,PM2.5
2020-02-06,Meerut,3.0,Moderate,200,"PM10, PM2.5"
2020-02-07,Meerut,3.0,Poor,252,PM2.5
2020-02-08,Meerut,3.0,Poor,231,PM2.5
2020-02-09,Meerut,3.0,Poor,271,PM2.5
2020-02-10,Meerut,3.0,Poor,276,PM2.5
2020-02-11,Meerut,3.0,Poor,289,PM2.5
2020-02-12,Meerut,3.0,Poor,291,PM2.5
2020-02-13,Meerut,3.0,Moderate,155,"PM10, PM2.5"
2020-02-14,Meerut,2.0,Moderate,150,PM10
2020-02-15,Meerut,2.0,Moderate,133,PM10
2020-02-16,Meerut,2.0,Poor,263,PM2.5
2020-02-17,Meerut,3.0,Poor,251,PM2.5
2020-02-18,Meerut,3.0,Poor,221,PM2.5
2020-02-19,Meerut,2.0,Poor,286,"PM10, PM2.5"
2020-02-20,Meerut,2.0,Poor,277,PM2.5
2020-02-21,Meerut,1.0,Moderate,129,PM2.5
2020-02-22,Meerut,2.0,Good,50,CO
2020-02-23,Meerut,2.0,Moderate,191,PM2.5
2020-02-24,Meerut,2.0,Satisfactory,84,"CO, PM10"
2020-02-25,Meerut,3.0,Poor,216,PM2.5
2020-02-26,Meerut,3.0,Poor,230,PM2.5
2020-02-27,Meerut,3.0,Poor,244,PM2.5
2020-02-28,Meerut,3.0,Poor,238,PM2.5
2020-02-29,Meerut,3.0,Poor,202,PM2.5
2020-03-01,Meerut,1.0,Good,50,CO
2020-03-02,Meerut,1.0,Moderate,151,PM2.5
2020-03-03,Meerut,3.0,Moderate,175,PM2.5
2020-03-04,Meerut,3.0,Poor,208,PM2.5
2020-03-05,Meerut,2.0,Satisfactory,66,"CO, PM10"
2020-03-06,Meerut,2.0,Satisfactory,54,CO
2020-03-07,Meerut,3.0,Satisfactory,64,"CO, O3, PM10"
2020-03-08,Meerut,3.0,Satisfactory,95,"PM10, PM2.5"
2020-03-09,Meerut,2.0,Satisfactory,90,PM10
2020-03-10,Meerut,2.0,Moderate,143,PM2.5
2020-03-11,Meerut,2.0,Moderate,116,PM10
2020-03-12,Meerut,3.0,Moderate,118,PM10
2020-03-13,Meerut,3.0,Moderate,131,PM10
2020-03-14,Meerut,2.0,Satisfactory,56,"CO, O3"
2020-03-15,Meerut,3.0,Satisfactory,83,"CO, PM10"
2020-03-16,Meerut,2.0,Satisfactory,94,"PM10, PM2.5"
2020-03-17,Meerut,3.0,Moderate,129,PM10
2020-03-18,Meerut,3.0,Moderate,138,"PM10, PM2.5"
2020-03-19,Meerut,3.0,Moderate,183,PM2.5
2020-03-20,Meerut,3.0,Poor,208,PM2.5
2020-03-21,Meerut,2.0,Poor,258,PM2.5
2020-03-22,Meerut,2.0,Moderate,172,PM2.5
2020-03-23,Meerut,2.0,Moderate,136,PM2.5
2020-03-24,Meerut,2.0,Moderate,171,PM2.5
2020-03-25,Meerut,2.0,Moderate,110,PM10
2020-03-26,Meerut,1.0,Moderate,104,CO
2020-03-27,Meerut,1.0,Satisfactory,75,PM10
2020-03-28,Meerut,1.0,Satisfactory,58,CO
2020-03-29,Meerut,2.0,Satisfactory,55,PM10
2020-03-30,Meerut,2.0,Satisfactory,95,PM10
2020-03-31,Meerut,2.0,Satisfactory,84,PM10
2020-04-01,Meerut,2.0,Satisfactory,84,PM10
2020-04-02,Meerut,2.0,Satisfactory,82,"CO, PM10"
2020-04-03,Meerut,2.0,Satisfactory,72,PM10
2020-04-04,Meerut,2.0,Satisfactory,90,PM10
2020-04-05,Meerut,2.0,Moderate,125,PM2.5
2020-04-06,Meerut,2.0,Moderate,164,PM2.5
2020-04-07,Meerut,2.0,Moderate,104,PM10
2020-04-08,Meerut,2.0,Moderate,106,PM10
2020-04-09,Meerut,2.0,Moderate,116,"PM10, PM2.5"
2020-04-10,Meerut,2.0,Moderate,158,PM2.5
2020-04-11,Meerut,1.0,Moderate,170,PM2.5
2020-04-12,Meerut,2.0,Moderate,118,PM10
2020-04-13,Meerut,2.0,Moderate,149,"PM10, PM2.5"
2020-04-14,Meerut,2.0,Moderate,188,PM2.5
2020-04-15,Meerut,2.0,Poor,236,PM10
2020-04-16,Meerut,2.0,Very Poor,306,PM10
2020-04-17,Meerut,1.0,Moderate,160,PM10
2020-04-18,Meerut,1.0,Satisfactory,91,PM10
2020-04-19,Meerut,2.0,Satisfactory,78,PM10
2020-04-20,Meerut,2.0,Moderate,186,"PM10, PM2.5"
2020-04-21,Meerut,2.0,Moderate,102,"CO, PM10"
2020-04-22,Meerut,2.0,Moderate,142,"PM10, PM2.5"
2020-04-23,Meerut,2.0,Moderate,142,PM10
2020-04-24,Meerut,2.0,Moderate,164,PM10
2020-04-25,Meerut,2.0,Poor,220,PM10
2020-04-26,Meerut,1.0,Moderate,180,PM10
2020-04-27,Meerut,1.0,Satisfactory,91,PM10
2020-04-28,Meerut,2.0,Satisfactory,100,PM10
2020-04-29,Meerut,1.0,Moderate,154,PM10
2020-04-30,Meerut,1.0,Moderate,169,PM2.5
2020-05-01,Meerut,2.0,Moderate,145,PM10
2020-05-02,Meerut,2.0,Moderate,118,PM10
2020-05-03,Meerut,2.0,Moderate,146,PM10
2020-05-04,Meerut,2.0,Satisfactory,68,"CO, PM10"
2020-05-05,Meerut,2.0,Moderate,129,"PM10, PM2.5"
2020-05-06,Meerut,2.0,Moderate,114,PM10
2020-05-07,Meerut,2.0,Satisfactory,85,"CO, PM10"
2020-05-08,Meerut,2.0,Moderate,120,PM2.5
2020-05-09,Meerut,2.0,Moderate,162,PM2.5
2020-05-10,Meerut,2.0,Moderate,132,PM10
2020-05-11,Meerut,2.0,Satisfactory,80,CO
2020-05-12,Meerut,2.0,Satisfactory,85,PM10
2020-05-13,Meerut,2.0,Moderate,166,PM10
2020-05-14,Meerut,2.0,Poor,240,PM2.5
2020-05-15,Meerut,2.0,Moderate,128,PM10
2020-05-16,Meerut,2.0,Moderate,129,PM10
2020-05-17,Meerut,1.0,Moderate,152,PM2.5
2020-05-18,Meerut,1.0,Moderate,185,PM2.5
2020-05-19,Meerut,2.0,Moderate,153,PM10
2020-05-20,Meerut,2.0,Moderate,149,PM10
2020-05-21,Meerut,2.0,Moderate,179,PM10
2020-05-22,Meerut,2.0,Poor,259,PM10
2020-05-23,Meerut,2.0,Poor,220,"PM10, PM2.5"
2020-05-24,Meerut,2.0,Poor,246,"PM10, PM2.5"
2020-05-25,Meerut,2.0,Moderate,175,"PM10, PM2.5"
2020-05-26,Meerut,2.0,Moderate,165,"PM10, PM2.5"
2020-05-27,Meerut,1.0,Moderate,142,PM10
2020-05-28,Meerut,2.0,Moderate,165,PM10
2020-05-29,Meerut,1.0,Satisfactory,57,CO
2020-05-30,Meerut,1.0,Good,47,CO
2020-05-31,Meerut,2.0,Good,39,CO
2020-06-01,Meerut,1.0,Good,30,PM2.5
2020-06-03,Meerut,2.0,Satisfactory,98,PM10
2020-06-04,Meerut,2.0,Moderate,125,PM10
2020-06-05,Meerut,2.0,Satisfactory,73,PM10
2020-06-06,Meerut,2.0,Satisfactory,68,PM10
2020-06-07,Meerut,2.0,Moderate,101,"PM10, PM2.5"
2020-06-08,Meerut,2.0,Satisfactory,96,"PM10, PM2.5"
2020-06-09,Meerut,2.0,Moderate,117,PM10
2020-06-10,Meerut,2.0,Moderate,142,PM10
2020-06-11,Meerut,3.0,Moderate,166,"O3, PM10"
2020-06-12,Meerut,3.0,Moderate,144,"O3, PM10"
2020-06-13,Meerut,3.0,Moderate,157,"O3, PM10"
2020-06-14,Meerut,2.0,Moderate,200,"O3, PM10"
2020-06-15,Meerut,3.0,Moderate,132,"O3, PM10"
2020-06-16,Meerut,2.0,Moderate,131,"O3, PM10"
2020-06-17,Meerut,2.0,Moderate,129,"O3, PM10"
2020-06-18,Meerut,2.0,Moderate,156,"O3, PM10"
2020-06-19,Meerut,1.0,Satisfactory,97,PM10
2020-06-20,Meerut,2.0,Moderate,144,"O3, PM10"
2020-06-21,Meerut,3.0,Moderate,118,"O3, PM10"
2020-06-22,Meerut,3.0,Moderate,129,"O3, PM10"
2020-06-23,Meerut,3.0,Satisfactory,66,"CO, O3, PM2.5"
2020-06-24,Meerut,3.0,Satisfactory,68,PM10
2020-06-25,Meerut,3.0,Satisfactory,78,"O3, PM10"
2020-06-26,Meerut,3.0,Moderate,129,"O3, PM10"
2020-06-27,Meerut,3.0,Moderate,135,PM10
2020-06-28,Meerut,3.0,Poor,268,PM10
2020-06-29,Meerut,3.0,Moderate,167,PM10
2020-06-30,Meerut,3.0,Moderate,101,"O3, PM10"
2020-07-01,Meerut,3.0,Moderate,123,"O3, PM10"
2020-07-02,Meerut,3.0,Moderate,121,"O3, PM10"
2020-07-03,Meerut,3.0,Moderate,110,"CO, PM10"
2020-07-04,Meerut,3.0,Satisfactory,96,"O3, PM10"
2020-07-05,Meerut,1.0,Good,50,PM10
2020-07-06,Meerut,2.0,Satisfactory,58,"CO, PM10"
2020-07-07,Meerut,2.0,Good,47,"CO, PM10"
2020-07-08,Meerut,2.0,Satisfactory,76,CO
2020-07-09,Meerut,2.0,Satisfactory,69,PM10
2020-07-10,Meerut,1.0,Satisfactory,99,PM10
2020-07-11,Meerut,1.0,Good,49,CO
2020-07-12,Meerut,2.0,Good,50,PM10
2020-07-13,Meerut,2.0,Satisfactory,68,PM10
2020-07-14,Meerut,2.0,Moderate,154,PM10
2020-07-15,Meerut,1.0,Moderate,120,PM10
2020-07-16,Meerut,2.0,Satisfactory,56,PM10
2020-07-17,Meerut,2.0,Satisfactory,61,PM10
2020-07-18,Meerut,2.0,Good,50,"CO, PM2.5"
2020-07-19,Meerut,1.0,Good,35,PM2.5
2020-07-20,Meerut,1.0,Good,39,NO2
2020-07-21,Meerut,1.0,Good,40,NO2
2020-07-22,Meerut,2.0,Good,36,"NO2, PM10"
2020-07-23,Meerut,2.0,Satisfactory,58,"PM10, PM2.5"
2020-07-24,Meerut,1.0,Satisfactory,59,PM10
2020-07-25,Meerut,2.0,Satisfactory,51,"O3, PM10"
2020-07-26,Meerut,2.0,Satisfactory,64,"O3, PM10"
2020-07-27,Meerut,1.0,Satisfactory,96,PM10
2020-07-28,Meerut,2.0,Moderate,106,PM10
2020-07-29,Meerut,3.0,Satisfactory,70,PM10
2020-07-30,Meerut,3.0,Good,39,"CO, O3"
2020-07-31,Meerut,3.0,Good,49,"O3, PM10"
2020-08-01,Meerut,3.0,Satisfactory,52,"O3, PM10"
2020-08-02,Meerut,3.0,Satisfactory,87,"CO, PM10"
2020-08-03,Meerut,3.0,Satisfactory,93,PM10
2020-08-04,Meerut,2.0,Satisfactory,60,"O3, PM2.5"
2020-08-05,Meerut,3.0,Satisfactory,67,PM10
2020-08-06,Meerut,3.0,Good,42,PM10
2020-08-07,Meerut,2.0,Good,35,"O3, PM10"
2020-08-08,Meerut,2.0,Satisfactory,52,PM10
2020-08-09,Meerut,2.0,Good,49,PM10
2020-08-10,Meerut,1.0,Good,42,PM10
2020-08-11,Meerut,3.0,Good,49,"CO, O3, PM10"
2020-08-12,Meerut,2.0,Satisfactory,64,PM10
2020-08-13,Meerut,3.0,Good,32,PM10
2020-08-14,Meerut,1.0,Good,17,NO2
2020-08-15,Meerut,2.0,Good,43,PM10
2020-08-16,Meerut,2.0,Good,48,PM10
2020-08-17,Meerut,2.0,Good,46,PM10
2020-08-18,Meerut,2.0,Good,44,PM10
2020-08-19,Meerut,1.0,Satisfactory,56,PM10
2020-08-20,Meerut,3.0,Good,25,"O3, PM10"
2020-08-21,Meerut,3.0,Good,18,"NO2, O3, PM10"
2020-08-22,Meerut,2.0,Good,23,PM10
2020-08-23,Meerut,2.0,Good,26,PM10
2020-08-24,Meerut,1.0,Good,24,PM10
2020-08-25,Meerut,2.0,Good,39,PM10
2020-08-26,Meerut,3.0,Satisfactory,52,PM10
2020-08-27,Meerut,3.0,Satisfactory,57,PM10
2020-08-28,Meerut,3.0,Satisfactory,58,PM10
2020-08-31,Meerut,1.0,Good,33,PM10
2020-09-01,Meerut,3.0,Satisfactory,54,PM10
2020-09-02,Meerut,2.0,Satisfactory,80,PM10
2020-09-03,Meerut,1.0,Satisfactory,81,PM10
2020-09-04,Meerut,2.0,Satisfactory,90,"PM10, PM2.5"
2020-09-05,Meerut,2.0,Moderate,105,PM2.5
2020-09-06,Meerut,2.0,Good,47,"PM10, PM2.5"
2020-09-07,Meerut,2.0,Satisfactory,57,"PM10, PM2.5"
2020-09-08,Meerut,2.0,Satisfactory,82,"PM10, PM2.5"
2020-09-09,Meerut,2.0,Satisfactory,96,PM10
2020-09-10,Meerut,2.0,Moderate,114,"PM10, PM2.5"
2020-09-11,Meerut,3.0,Moderate,143,"PM10, PM2.5"
2020-09-12,Meerut,3.0,Moderate,160,"PM10, PM2.5"
2020-09-13,Meerut,3.0,Moderate,173,"PM10, PM2.5"
2020-09-14,Meerut,3.0,Moderate,185,"PM10, PM2.5"
2020-09-15,Meerut,2.0,Poor,206,"PM10, PM2.5"
2020-09-16,Meerut,3.0,Moderate,176,"PM10, PM2.5"
2020-09-17,Meerut,3.0,Moderate,145,"PM10, PM2.5"
2020-09-18,Meerut,3.0,Moderate,102,"PM10, PM2.5"
2020-09-19,Meerut,2.0,Moderate,132,PM10
2020-09-20,Meerut,1.0,Moderate,176,PM2.5
2020-09-21,Meerut,2.0,Moderate,145,PM10
2020-09-22,Meerut,3.0,Moderate,117,"PM10, PM2.5"
2020-09-23,Meerut,3.0,Satisfactory,55,"PM10, PM2.5"
2020-09-24,Meerut,2.0,Satisfactory,68,PM10
2020-09-25,Meerut,2.0,Moderate,120,PM10
2020-09-26,Meerut,3.0,Poor,216,PM2.5
2020-09-27,Meerut,3.0,Moderate,117,"PM10, PM2.5"
2020-09-28,Meerut,3.0,Moderate,147,"PM10, PM2.5"
2020-09-29,Meerut,3.0,Moderate,164,"PM10, PM2.5"
2020-09-30,Meerut,3.0,Moderate,138,"PM10, PM2.5"
2020-10-01,Meerut,2.0,Moderate,135,"PM10, PM2.5"
2020-10-02,Meerut,3.0,Moderate,195,"PM10, PM2.5"
2020-10-03,Meerut,3.0,Poor,217,PM2.5
2020-10-04,Meerut,3.0,Poor,215,"PM10, PM2.5"
2020-10-05,Meerut,2.0,Poor,204,"PM10, PM2.5"
2020-10-06,Meerut,3.0,Poor,216,"PM10, PM2.5"
2020-10-07,Meerut,3.0,Poor,263,"PM10, PM2.5"
2020-10-08,Meerut,3.0,Poor,286,PM2.5
2020-10-09,Meerut,2.0,Poor,251,"PM10, PM2.5"
2020-10-10,Meerut,1.0,Poor,262,PM2.5
2020-10-11,Meerut,3.0,Poor,292,PM2.5
2020-10-12,Meerut,3.0,Poor,257,PM2.5
2020-10-13,Meerut,3.0,Poor,254,PM2.5
2020-10-14,Meerut,3.0,Poor,243,"PM10, PM2.5"
2020-10-15,Meerut,3.0,Very Poor,359,"PM10, PM2.5"
2020-10-16,Meerut,3.0,Poor,278,PM2.5
2020-10-17,Meerut,3.0,Poor,267,"PM10, PM2.5"
2020-10-18,Meerut,3.0,Poor,257,PM2.5
2020-10-19,Meerut,2.0,Poor,253,PM2.5
2020-10-20,Meerut,3.0,Poor,258,"PM10, PM2.5"
2020-10-21,Meerut,3.0,Very Poor,339,"PM10, PM2.5"
2020-10-22,Meerut,2.0,Poor,232,"NO2, PM10"
2020-10-23,Meerut,3.0,Poor,261,"PM10, PM2.5"
2020-10-24,Meerut,2.0,Poor,290,"O3, PM2.5"
2020-10-25,Meerut,3.0,Very Poor,363,"PM10, PM2.5"
2020-10-26,Meerut,3.0,Very Poor,331,"PM10, PM2.5"
2020-10-27,Meerut,3.0,Poor,293,"PM10, PM2.5"
2020-10-28,Meerut,3.0,Very Poor,302,"PM10, PM2.5"
2020-10-29,Meerut,3.0,Poor,275,"PM10, PM2.5"
2020-10-30,Meerut,3.0,Poor,300,"PM10, PM2.5"
2020-10-31,Meerut,3.0,Very Poor,367,PM2.5
2020-11-01,Meerut,3.0,Very Poor,364,PM2.5
2020-11-02,Meerut,1.0,Very Poor,344,PM2.5
2020-11-03,Meerut,2.0,Very Poor,309,PM2.5
2020-11-04,Meerut,3.0,Very Poor,374,"PM10, PM2.5"
2020-11-05,Meerut,2.0,Severe,453,"PM10, PM2.5"
2020-11-06,Meerut,2.0,Very Poor,342,"PM10, PM2.5"
2020-11-07,Meerut,3.0,Very Poor,348,"PM10, PM2.5"
2020-11-08,Meerut,3.0,Very Poor,386,"PM10, PM2.5"
2020-11-09,Meerut,3.0,Very Poor,374,"PM10, PM2.5"
2020-11-10,Meerut,3.0,Very Poor,336,"PM10, PM2.5"
2020-11-11,Meerut,2.0,Poor,252,PM2.5
2020-11-12,Meerut,3.0,Poor,256,PM10
2020-11-13,Meerut,3.0,Very Poor,315,"PM10, PM2.5"
2020-11-14,Meerut,3.0,Very Poor,397,"PM10, PM2.5"
2020-11-15,Meerut,3.0,Very Poor,373,PM2.5
2020-11-16,Meerut,1.0,Satisfactory,83,PM2.5
2020-11-17,Meerut,3.0,Moderate,144,"NO2, PM10, PM2.5"
2020-11-18,Meerut,3.0,Moderate,182,"PM10, PM2.5"
2020-11-19,Meerut,3.0,Poor,208,"PM10, PM2.5"
2020-11-20,Meerut,3.0,Poor,292,PM2.5
2020-11-21,Meerut,3.0,Moderate,190,"PM10, PM2.5"
2020-11-22,Meerut,3.0,Poor,217,PM2.5
2020-11-23,Meerut,2.0,Poor,248,PM2.5
2020-11-24,Meerut,2.0,Very Poor,341,"PM10, PM2.5"
2020-11-25,Meerut,3.0,Very Poor,340,"PM10, PM2.5"
2020-11-26,Meerut,3.0,Poor,216,"PM10, PM2.5"
2020-11-27,Meerut,3.0,Moderate,141,"NO2, PM10, PM2.5"
2020-11-28,Meerut,2.0,Poor,220,PM2.5
2020-11-29,Meerut,3.0,Very Poor,316,PM2.5
2020-11-30,Meerut,3.0,Very Poor,341,PM2.5
2020-12-01,Meerut,3.0,Very Poor,342,"PM10, PM2.5"
2020-12-02,Meerut,3.0,Very Poor,356,"PM10, PM2.5"
2020-12-03,Meerut,2.0,Very Poor,345,"PM10, PM2.5"
2020-12-04,Meerut,3.0,Severe,403,"PM10, PM2.5"
2020-12-05,Meerut,3.0,Very Poor,353,PM2.5
2020-12-06,Meerut,3.0,Very Poor,334,PM2.5
2020-12-07,Meerut,3.0,Very Poor,353,PM2.5
2020-12-08,Meerut,2.0,Very Poor,364,PM2.5
2020-12-09,Meerut,2.0,Very Poor,352,PM2.5
2020-12-10,Meerut,2.0,Poor,237,PM2.5
2020-12-11,Meerut,3.0,Very Poor,302,PM2.5
2020-12-12,Meerut,3.0,Very Poor,354,PM2.5
2020-12-13,Meerut,3.0,Poor,265,PM2.5
2020-12-14,Meerut,3.0,Moderate,156,"PM10, PM2.5"
2020-12-15,Meerut,2.0,Moderate,174,"PM10, PM2.5"
2020-12-16,Meerut,2.0,Poor,268,PM2.5
2020-12-17,Meerut,3.0,Poor,222,PM2.5
2020-12-18,Meerut,2.0,Poor,294,PM2.5
2020-12-19,Meerut,3.0,Poor,269,PM2.5
2020-12-20,Meerut,2.0,Very Poor,329,PM2.5
2020-12-21,Meerut,2.0,Very Poor,370,PM2.5
2020-12-22,Meerut,3.0,Severe,446,PM2.5
2020-12-23,Meerut,3.0,Severe,446,PM2.5
2020-12-24,Meerut,2.0,Severe,404,PM2.5
2020-12-25,Meerut,2.0,Very Poor,338,PM2.5
2020-12-26,Meerut,2.0,Very Poor,314,PM2.5
2020-12-27,Meerut,3.0,Very Poor,362,PM2.5
2020-12-28,Meerut,3.0,Poor,237,"PM10, PM2.5"
2020-12-29,Meerut,3.0,Poor,242,"NO2, PM10, PM2.5"
2020-12-30,Meerut,3.0,Poor,291,"NO2, PM2.5"
2020-12-31,Meerut,2.0,Very Poor,308,PM2.5
2021-01-01,Meerut,2.0,Very Poor,382,PM2.5
2021-01-02,Meerut,3.0,Severe,411,PM2.5
2021-01-03,Meerut,2.0,Very Poor,315,PM2.5
2021-01-04,Meerut,2.0,Satisfactory,84,"NO2, PM2.5"
2021-01-05,Meerut,3.0,Moderate,107,"NO2, PM2.5"
2021-01-06,Meerut,3.0,Moderate,104,"NO2, O3, PM2.5"
2021-01-07,Meerut,3.0,Moderate,162,"NO2, PM2.5"
2021-01-08,Meerut,3.0,Moderate,142,"NO2, O3, PM2.5"
2021-01-09,Meerut,3.0,Poor,250,PM2.5
2021-01-10,Meerut,2.0,Moderate,150,"PM10, PM2.5"
2021-01-11,Meerut,3.0,Poor,203,"NO2, PM2.5"
2021-01-12,Meerut,3.0,Poor,208,PM2.5
2021-01-13,Meerut,3.0,Very Poor,303,PM2.5
2021-01-14,Meerut,3.0,Very Poor,305,PM2.5
2021-01-15,Meerut,2.0,Very Poor,381,"PM10, PM2.5"
2021-01-16,Meerut,2.0,Very Poor,370,"PM10, PM2.5"
2021-01-17,Meerut,2.0,Poor,296,PM2.5
2021-01-18,Meerut,2.0,Very Poor,330,PM2.5
2021-01-19,Meerut,2.0,Very Poor,366,PM2.5
2021-01-20,Meerut,2.0,Very Poor,326,PM2.5
2021-01-21,Meerut,2.0,Poor,298,PM2.5
2021-01-22,Meerut,2.0,Poor,283,PM2.5
2021-01-23,Meerut,2.0,Poor,282,PM2.5
2021-01-24,Meerut,1.0,Very Poor,354,PM2.5
2021-01-25,Meerut,2.0,Very Poor,336,PM2.5
2021-01-26,Meerut,2.0,Very Poor,329,PM2.5
2021-01-27,Meerut,2.0,Very Poor,350,PM2.5
2021-01-28,Meerut,2.0,Poor,276,PM2.5
2021-01-29,Meerut,2.0,Very Poor,354,PM2.5
2021-01-30,Meerut,2.0,Poor,288,PM2.5
2021-01-31,Meerut,2.0,Very Poor,308,PM2.5
2021-02-01,Meerut,2.0,Very Poor,337,PM2.5
2021-02-02,Meerut,2.0,Very Poor,332,PM2.5
2021-02-03,Meerut,2.0,Very Poor,336,PM2.5
2021-02-04,Meerut,2.0,Very Poor,305,PM2.5
2021-02-05,Meerut,2.0,Satisfactory,74,"NO2, PM10"
2021-02-06,Meerut,2.0,Moderate,129,"PM10, PM2.5"
2021-02-07,Meerut,2.0,Moderate,178,PM2.5
2021-02-08,Meerut,1.0,Poor,294,PM2.5
2021-02-09,Meerut,2.0,Very Poor,301,PM2.5
2021-02-10,Meerut,2.0,Very Poor,347,PM2.5
2021-02-11,Meerut,2.0,Very Poor,313,"PM10, PM2.5"
2021-02-12,Meerut,2.0,Very Poor,328,PM2.5
2021-02-13,Meerut,2.0,Poor,270,PM2.5
2021-02-14,Meerut,2.0,Very Poor,330,PM2.5
2021-02-15,Meerut,2.0,Very Poor,306,"PM10, PM2.5"
2021-02-16,Meerut,2.0,Very Poor,361,"PM10, PM2.5"
2021-02-17,Meerut,2.0,Poor,278,PM2.5
2021-02-18,Meerut,2.0,Very Poor,320,"PM10, PM2.5"
2021-02-19,Meerut,2.0,Poor,296,PM2.5
2021-02-20,Meerut,2.0,Poor,267,PM2.5
2021-02-21,Meerut,1.0,Poor,297,PM2.5
2021-02-22,Meerut,2.0,Very Poor,316,PM2.5
2021-02-23,Meerut,2.0,Poor,289,"PM10, PM2.5"
2021-02-24,Meerut,2.0,Poor,296,PM10
2021-02-25,Meerut,2.0,Poor,264,PM2.5
2021-02-26,Meerut,1.0,Moderate,170,PM10
2021-02-27,Meerut,1.0,Poor,215,PM10
2021-02-28,Meerut,2.0,Moderate,192,PM10
2021-03-01,Meerut,1.0,Moderate,194,PM10
2021-03-02,Meerut,1.0,Moderate,187,PM10
2021-03-03,Meerut,1.0,Poor,252,NO2
2021-03-04,Meerut,2.0,Poor,297,"PM10, PM2.5"
2021-03-05,Meerut,2.0,Poor,228,"NO2, PM10"
2021-03-06,Meerut,2.0,Moderate,182,"NO2, PM10"
2021-03-07,Meerut,2.0,Poor,248,PM2.5
2021-03-08,Meerut,2.0,Poor,244,PM2.5
2021-03-09,Meerut,2.0,Poor,290,PM2.5
2021-03-10,Meerut,2.0,Poor,272,PM10
2021-03-11,Meerut,2.0,Poor,245,PM10
2021-03-12,Meerut,2.0,Very Poor,308,PM10
2021-03-13,Meerut,1.0,Poor,245,PM2.5
2021-03-14,Meerut,2.0,Moderate,170,"PM10, PM2.5"
2021-03-15,Meerut,2.0,Moderate,178,"PM10, PM2.5"
2021-03-16,Meerut,2.0,Poor,242,"NO2, PM10"
2021-03-17,Meerut,2.0,Very Poor,308,PM10
2021-03-18,Meerut,2.0,Very Poor,355,PM10
2021-03-19,Meerut,2.0,Poor,292,PM10
2021-03-20,Meerut,2.0,Poor,204,PM10
2021-03-21,Meerut,2.0,Poor,284,PM10
2021-03-22,Meerut,2.0,Poor,232,PM10
2021-03-23,Meerut,2.0,Poor,231,PM10
2021-03-24,Meerut,1.0,Poor,278,NO2
2021-03-25,Meerut,2.0,Moderate,156,PM10
2021-03-26,Meerut,3.0,Moderate,141,PM10
2021-03-27,Meerut,3.0,Poor,208,"O3, PM10"
2021-03-28,Meerut,3.0,Poor,267,"O3, PM10"
2021-03-29,Meerut,2.0,Poor,278,PM2.5
2021-03-30,Meerut,2.0,Very Poor,314,PM10
2021-03-31,Meerut,2.0,Poor,280,PM10
2021-04-01,Meerut,2.0,Poor,238,PM10
2021-04-02,Meerut,2.0,Poor,205,PM10
2021-04-03,Meerut,3.0,Poor,208,"NO2, PM10, PM2.5"
2021-04-04,Meerut,3.0,Moderate,195,"NO2, PM10"
2021-04-05,Meerut,3.0,Poor,217,"PM10, PM2.5"
2021-04-06,Meerut,3.0,Poor,278,"PM10, PM2.5"
2021-04-07,Meerut,2.0,Poor,262,PM10
2021-04-08,Meerut,3.0,Moderate,189,"NO2, PM10"
2021-04-09,Meerut,3.0,Moderate,149,PM10
2021-04-10,Meerut,3.0,Moderate,152,"O3, PM10"
2021-04-11,Meerut,3.0,Poor,207,"NO2, PM10"
2021-04-12,Meerut,3.0,Poor,245,PM10
2021-04-13,Meerut,2.0,Poor,228,"NO2, PM10"
2021-04-14,Meerut,3.0,Poor,212,"NO2, PM10"
2021-04-15,Meerut,3.0,Poor,256,"NO2, PM10"
2021-04-16,Meerut,3.0,Poor,249,"PM10, PM2.5"
2021-04-17,Meerut,2.0,Moderate,101,"PM10, PM2.5"
2021-04-18,Meerut,3.0,Moderate,162,PM10